| time (UTC) | temp F | wind direction | speed knots | gust knots | rain 1hr in | rain 24hr in | rain mn in | humidity % | barometer mb |
| 20260903113103 | 62 | 218 | 0.0 | 3.5 | 0.00 | 0.00 | 0.00 | 43 | 1020.5 |
| 20260903111604 | 62 | 0 | 0.0 | 3.5 | 0.00 | 0.00 | 0.00 | 45 | 1020.4 |
| 20260903110106 | 62 | 202 | 1.7 | 7.8 | 0.00 | 0.00 | 0.00 | 44 | 1020.5 |
| 20260903104606 | 61 | 213 | 1.7 | 4.3 | 0.00 | 0.00 | 0.00 | 47 | 1020.6 |
| 20260903103106 | 60 | 243 | 0.0 | 3.5 | 0.00 | 0.00 | 0.00 | 47 | 1020.6 |
| 20260903101611 | 61 | 221 | 2.6 | 5.2 | 0.00 | 0.00 | 0.00 | 46 | 1020.5 |
| 20260903100104 | 61 | 0 | 0.0 | 4.3 | 0.00 | 0.00 | 0.00 | 46 | 1020.6 |
| 20260903094612 | 63 | 198 | 4.3 | 10.4 | 0.00 | 0.00 | 0.00 | 44 | 1020.7 |
| 20260903093114 | 60 | 191 | 1.7 | 4.3 | 0.00 | 0.00 | 0.00 | 46 | 1020.8 |
| 20260903091603 | 62 | 210 | 2.6 | 7.8 | 0.00 | 0.00 | 0.00 | 43 | 1020.9 |
| 20260903084601 | 62 | 200 | 1.7 | 7.8 | 0.00 | 0.00 | 0.00 | 42 | 1020.8 |
| 20260903083107 | 63 | 237 | 0.9 | 4.3 | 0.00 | 0.00 | 0.00 | 40 | 1020.8 |
| 20260903081603 | 62 | 186 | 0.9 | 4.3 | 0.00 | 0.00 | 0.00 | 40 | 1020.7 |
| 20260903080107 | 61 | 0 | 0.0 | 0.9 | 0.00 | 0.00 | 0.00 | 41 | 1020.8 |
| 20260903074608 | 63 | 0 | 0.0 | 1.7 | 0.00 | 0.00 | 0.00 | 41 | 1020.9 |
| 20260903073107 | 63 | 0 | 0.9 | 3.5 | 0.00 | 0.00 | 0.00 | 40 | 1020.8 |
| 20260903071611 | 64 | 253 | 0.0 | 1.7 | 0.00 | 0.00 | 0.00 | 41 | 1020.9 |
| 20260903070112 | 65 | 214 | 0.9 | 3.5 | 0.00 | 0.00 | 0.00 | 41 | 1021.0 |
| 20260903064608 | 64 | 0 | 0.0 | 0.9 | 0.00 | 0.00 | 0.00 | 42 | 1021.2 |
| 20260903063127 | 64 | 0 | 0.0 | 0.9 | 0.00 | 0.00 | 0.00 | 43 | 1021.4 |
| 20260903061608 | 64 | 0 | 0.0 | 0.0 | 0.00 | 0.00 | 0.00 | 43 | 1021.3 |
| 20260903060118 | 64 | 0 | 0.0 | 0.9 | 0.00 | 0.00 | 0.00 | 43 | 1021.1 |
| 20260903054611 | 64 | 0 | 0.0 | 0.0 | 0.00 | 0.00 | 0.00 | 44 | 1021.1 |
| 20260903053105 | 64 | 0 | 0.0 | 0.9 | 0.00 | 0.00 | 0.00 | 45 | 1021.2 |
| 20260903051602 | 64 | 0 | 0.0 | 2.6 | 0.00 | 0.00 | 0.00 | 44 | 1021.3 |
| 20260903050128 | 64 | 232 | 0.0 | 1.7 | 0.00 | 0.00 | 0.00 | 45 | 1021.3 |
| 20260903044606 | 65 | 0 | 0.0 | 0.9 | 0.00 | 0.00 | 0.00 | 45 | 1021.4 |
| 20260903043100 | 65 | 0 | 0.0 | 0.0 | 0.00 | 0.00 | 0.00 | 45 | 1021.7 |
| 20260903041603 | 65 | 0 | 0.0 | 0.0 | 0.00 | 0.00 | 0.00 | 45 | 1021.7 |
| 20260903040109 | 65 | 264 | 0.0 | 0.9 | 0.00 | 0.00 | 0.00 | 44 | 1021.7 |
| 20260903034603 | 66 | 0 | 0.0 | 0.0 | 0.00 | 0.00 | 0.00 | 43 | 1021.5 |
| 20260903033103 | 67 | 0 | 0.0 | 5.2 | 0.00 | 0.00 | 0.00 | 38 | 1021.4 |
| 20260903031604 | 66 | 122 | 0.0 | 1.7 | 0.00 | 0.00 | 0.00 | 40 | 1021.6 |
| 20260903030108 | 67 | 0 | 0.0 | 0.9 | 0.00 | 0.00 | 0.00 | 40 | 1021.4 |
| 20260903024600 | 69 | 0 | 0.0 | 2.6 | 0.00 | 0.00 | 0.00 | 36 | 1021.5 |
| 20260903023100 | 69 | 0 | 0.9 | 3.5 | 0.00 | 0.00 | 0.00 | 35 | 1021.3 |
| 20260903021609 | 69 | 124 | 1.7 | 5.2 | 0.00 | 0.00 | 0.00 | 36 | 1020.9 |
| 20260903020106 | 69 | 0 | 0.9 | 8.7 | 0.00 | 0.00 | 0.00 | 36 | 1020.8 |
| 20260903014612 | 70 | 0 | 2.6 | 7.8 | 0.00 | 0.00 | 0.00 | 37 | 1020.7 |
| 20260903013104 | 70 | 213 | 5.2 | 10.4 | 0.00 | 0.00 | 0.00 | 37 | 1020.6 |
| 20260903011611 | 71 | 181 | 4.3 | 11.3 | 0.00 | 0.00 | 0.00 | 36 | 1020.4 |
| 20260903010106 | 71 | 153 | 0.9 | 6.1 | 0.00 | 0.00 | 0.00 | 35 | 1020.3 |
| 20260903004603 | 71 | 0 | 0.0 | 3.5 | 0.00 | 0.00 | 0.00 | 38 | 1020.3 |
| 20260903003103 | 72 | 229 | 0.0 | 3.5 | 0.00 | 0.00 | 0.00 | 38 | 1020.4 |
| 20260903001607 | 72 | 195 | 1.7 | 5.2 | 0.00 | 0.00 | 0.00 | 35 | 1020.7 |
| 20260903000107 | 72 | 236 | 1.7 | 5.2 | 0.00 | 0.00 | 0.00 | 35 | 1020.5 |
| 20260902234606 | 73 | 186 | 0.0 | 2.6 | 0.00 | 0.00 | 0.00 | 38 | 1020.6 |
| 20260902233102 | 72 | 321 | 0.0 | 3.5 | 0.00 | 0.00 | 0.00 | 38 | 1020.9 |
| 20260902231609 | 70 | 285 | 2.6 | 10.4 | 0.00 | 0.00 | 0.00 | 39 | 1021.1 |
| 20260902230109 | 69 | 228 | 2.6 | 7.8 | 0.00 | 0.00 | 0.00 | 39 | 1021.8 |
| 20260902224606 | 73 | 218 | 5.2 | 16.5 | 0.00 | 0.00 | 0.00 | 34 | 1021.7 |
| 20260902223109 | 77 | 209 | 1.7 | 7.8 | 0.00 | 0.00 | 0.00 | 25 | 1020.8 |
| 20260902221602 | 78 | 79 | 3.5 | 7.0 | 0.00 | 0.00 | 0.00 | 24 | 1020.3 |
| 20260902220109 | 79 | 13 | 4.3 | 11.3 | 0.00 | 0.00 | 0.00 | 23 | 1020.1 |
| 20260902214606 | 78 | 44 | 1.7 | 7.0 | 0.00 | 0.00 | 0.00 | 24 | 1020.2 |
| 20260902213102 | 78 | 40 | 2.6 | 7.0 | 0.00 | 0.00 | 0.00 | 24 | 1020.5 |
| 20260902211604 | 78 | 108 | 3.5 | 10.4 | 0.00 | 0.00 | 0.00 | 24 | 1020.7 |
| 20260902210105 | 78 | 18 | 3.5 | 9.6 | 0.00 | 0.00 | 0.00 | 25 | 1021.0 |
| 20260902204604 | 78 | 40 | 4.3 | 10.4 | 0.00 | 0.00 | 0.00 | 25 | 1021.2 |
| 20260902203102 | 76 | 94 | 2.6 | 5.2 | 0.00 | 0.00 | 0.00 | 27 | 1021.5 |
| 20260902201606 | 75 | 55 | 1.7 | 8.7 | 0.00 | 0.00 | 0.00 | 28 | 1021.8 |
| 20260902200117 | 75 | 15 | 1.7 | 8.7 | 0.00 | 0.00 | 0.00 | 27 | 1022.0 |
| 20260902194607 | 76 | 94 | 1.7 | 8.7 | 0.00 | 0.00 | 0.00 | 27 | 1022.1 |
| 20260902193107 | 75 | 15 | 5.2 | 10.4 | 0.00 | 0.00 | 0.00 | 27 | 1022.1 |
| 20260902191606 | 77 | 0 | 3.5 | 9.6 | 0.00 | 0.00 | 0.00 | 27 | 1022.2 |
| 20260902190106 | 77 | 18 | 1.7 | 9.6 | 0.00 | 0.00 | 0.00 | 27 | 1022.2 |
| 20260902184609 | 77 | 38 | 4.3 | 10.4 | 0.00 | 0.00 | 0.00 | 27 | 1022.6 |
| 20260902183108 | 76 | 28 | 2.6 | 10.4 | 0.00 | 0.00 | 0.00 | 28 | 1022.8 |
| 20260902181603 | 75 | 103 | 3.5 | 9.6 | 0.00 | 0.00 | 0.00 | 29 | 1023.1 |
| 20260902180132 | 76 | 337 | 2.6 | 7.0 | 0.00 | 0.00 | 0.00 | 29 | 1023.1 |
| 20260902174605 | 77 | 11 | 4.3 | 15.6 | 0.00 | 0.00 | 0.00 | 27 | 1023.2 |
| 20260902173104 | 80 | 352 | 2.6 | 10.4 | 0.00 | 0.00 | 0.00 | 25 | 1023.4 |
| 20260902171608 | 78 | 274 | 2.6 | 8.7 | 0.00 | 0.00 | 0.00 | 23 | 1023.4 |
| 20260902170105 | 77 | 195 | 2.6 | 7.8 | 0.00 | 0.00 | 0.00 | 24 | 1023.7 |
| 20260902164608 | 77 | 205 | 1.7 | 12.2 | 0.00 | 0.00 | 0.00 | 23 | 1023.7 |
| 20260902163107 | 77 | 0 | 2.6 | 11.3 | 0.00 | 0.00 | 0.00 | 25 | 1023.9 |
| 20260902161606 | 77 | 198 | 3.5 | 10.4 | 0.00 | 0.00 | 0.00 | 24 | 1023.8 |
| 20260902160111 | 76 | 258 | 3.5 | 11.3 | 0.00 | 0.00 | 0.00 | 24 | 1023.8 |
| 20260902154602 | 76 | 193 | 2.6 | 10.4 | 0.00 | 0.00 | 0.00 | 25 | 1023.6 |
| 20260902153104 | 75 | 233 | 1.7 | 8.7 | 0.00 | 0.00 | 0.00 | 25 | 1023.6 |
| 20260902151604 | 74 | 49 | 3.5 | 9.6 | 0.00 | 0.00 | 0.00 | 29 | 1023.3 |
| 20260902144607 | 75 | 95 | 0.0 | 2.6 | 0.00 | 0.00 | 0.00 | 26 | 1023.1 |
| 20260902143108 | 74 | 207 | 0.9 | 6.1 | 0.00 | 0.00 | 0.00 | 26 | 1023.1 |
| 20260902141604 | 73 | 181 | 1.7 | 8.7 | 0.00 | 0.00 | 0.00 | 27 | 1023.2 |
| 20260902134607 | 71 | 207 | 0.9 | 6.1 | 0.00 | 0.00 | 0.00 | 29 | 1023.1 |
| 20260902133105 | 70 | 81 | 0.9 | 5.2 | 0.00 | 0.00 | 0.00 | 29 | 1023.0 |
| 20260902131602 | 69 | 214 | 0.9 | 3.5 | 0.00 | 0.00 | 0.00 | 30 | 1022.9 |
| 20260902130104 | 66 | 206 | 2.6 | 7.8 | 0.00 | 0.00 | 0.00 | 34 | 1022.7 |
| 20260902124608 | 63 | 266 | 0.0 | 2.6 | 0.00 | 0.00 | 0.00 | 37 | 1022.7 |
| 20260902123105 | 64 | 0 | 0.0 | 3.5 | 0.00 | 0.00 | 0.00 | 37 | 1022.7 |
| 20260902121613 | 64 | 309 | 0.9 | 6.1 | 0.00 | 0.00 | 0.00 | 37 | 1022.6 |
| 20260902120141 | 62 | 199 | 0.9 | 4.3 | 0.00 | 0.00 | 0.00 | 41 | 1022.4 |
| 20260902114602 | 61 | 0 | 0.0 | 2.6 | 0.00 | 0.00 | 0.00 | 45 | 1022.3 |